Powrót do katalogu

CAPELLA-11

ACADIA

AktywnyNaukaLEO
NORAD 57693·PAYLOAD·🇺🇸 United States

Wystrzelony Aug 23, 2023 z Rocket Lab Launch Complex 1

Loading…

Następne Przeloty (najbliższe 24 godziny)

TLE

ŚwieżeSource: Space-Track

Epoka: Sep 14, 2026, 03:58 UTC

1 57693U 23126A   26257.16552987  .00004034  00000-0  45914-3 0  9996
2 57693  53.0056 157.6061 0001740  41.6160 318.4953 14.88142625165351

Śledź CAPELLA-11 w czasie rzeczywistym z AllMySat

Download on the App Store